Location: Unspecified
(0.0000°N, 0.0000°E)
Time: 11:20:12
(UTC+00:00)

A-11 Canister half - Pass Details

Date: 03 August 2021
Orbit: 1515 x 1685 km, 47.2° (Epoch: 27 September)

Event Time Altitude Azimuth Distance (km) Brightness Sun altitude
Rises 22:29:17 0° 355° (N) 4,923 11.9 -60.6°
Enters shadow 22:32:33 - 8° (N) 4,337 11.5 -61.2°
Reaches altitude 10° 22:35:49 10° 25° (NNE) 3,934 - -61.9°
Maximum altitude 22:38:59 12° 44° (NE) 3,789 - -62.5°
Drops below altitude 10° 22:42:08 10° 62° (ENE) 3,920 - -63.1°
Sets 22:48:30 0° 92° (E) 4,881 - -64.3°
